{"data":{"norad_id":58187,"intl_designator":"2023-167N","name":"STARLINK-30760","alt_names":[],"object_type":"PAYLOAD","status":"ACTIVE","operator":null,"country":"US","launch_date":"2023-10-30","launch_site_code":"AFETR","launch_vehicle":null,"mission":null,"orbit_class":"UNKNOWN","rcs_meters":null,"size_class":null,"mass_kg":null,"dimensions":null,"purposes":["comms"],"wikipedia_slug":null,"has_3d_model":false,"image_url":null,"decayed_at":null,"tle_current":{"epoch":"2026-09-20T00:18:02.335392Z","epoch_age_seconds":182625,"freshness":"STALE","line1":"1 58187U 23167N   26263.01252703  .00000768  00000+0  37416-4 0  9992","line2":"2 58187  43.0060 126.0157 0001531 265.8272  94.2404 15.27582056160706","mean_motion":15.27582056,"eccentricity":0.0001531,"inclination_deg":43.006,"raan_deg":126.0157,"arg_perigee_deg":265.8272,"mean_anomaly_deg":94.2404,"bstar":3.7416e-5,"rev_number":16070,"period_min":94.266621838349,"perigee_km":481.99249299416,"apogee_km":484.09338629168,"semimajor_km":6861.1799396429,"source":"CELESTRAK","updated_at":"2026-09-21T09:00:33.828331Z"}}}